Wind_Speed
54 53 51 50 49 49 48 46 44 43 41 40 39 38 39 40 40 39 37 37 37 38 38 39 40 41 42 42 41 40 37 33 30 28 29 30 32 31 31 30 31 32
55 54 51 50 50 49 49 49 47 45 43 42 40 38 38 39 40 40 40 40 40 40 41 41 42 43 43 43 42 40 39 37 35 33 34 35 35 34 33 33 32 32
53 54 53 51 50 50 50 51 51 50 48 46 44 42 40 40 41 42 43 43 42 42 43 44 44 45 45 43 42 40 39 38 38 38 39 40 40 39 38 38 37 37
51 53 54 54 53 51 51 51 52 52 52 51 49 48 47 46 45 46 46 46 46 46 47 47 47 47 46 45 43 41 40 40 40 41 42 43 43 44 43 43 42 41
50 51 53 54 54 54 53 53 53 53 53 53 53 52 52 52 51 51 51 51 51 51 51 51 50 49 47 45 44 43 43 43 44 45 46 46 47 47 46 45 44 44
50 51 51 52 53 53 54 55 55 54 53 53 53 53 53 54 54 53 53 53 54 54 54 53 52 51 49 48 47 47 47 47 48 49 49 50 49 49 48 47 46 45
50 50 50 50 51 51 52 54 55 56 55 54 53 53 53 54 54 53 54 54 54 55 55 55 54 54 53 52 51 51 50 50 51 51 52 51 50 50 49 47 47 46
47 47 49 49 49 50 51 53 54 55 55 55 54 53 53 53 52 52 52 53 53 55 56 56 57 56 56 55 54 53 53 53 53 54 53 51 50 49 48 48 48 47
48 46 47 47 48 49 49 51 54 55 55 55 55 54 54 53 52 51 52 53 54 55 55 56 57 57 57 55 54 54 54 54 55 53 51 48 47 48 49 49 48 48
50 47 45 45 46 46 46 48 51 53 55 55 55 55 55 54 54 53 52 53 54 54 54 55 55 55 55 53 53 53 54 54 53 50 48 48 49 50 49 48 48 48
51 49 48 47 46 46 46 48 51 53 54 53 53 53 53 53 53 51 50 50 51 52 53 54 54 55 55 55 55 55 55 54 53 52 52 53 54 54 51 49 49 50
53 52 52 52 51 52 53 53 52 52 53 53 52 51 50 50 49 48 48 49 50 53 54 56 56 56 56 57 57 57 57 56 56 58 59 60 58 56 53 52 53 55
52 53 54 55 56 56 57 55 51 51 54 53 52 51 50 49 49 49 49 50 53 56 57 58 57 57 57 58 59 60 60 61 62 63 62 60 57 55 54 55 57 58
51 52 53 54 55 56 56 55 54 53 54 53 52 51 51 51 52 52 53 53 56 58 58 59 59 60 60 60 61 61 60 60 60 58 56 53 52 51 53 55 56 56
50 51 52 52 53 53 54 55 56 56 54 54 54 53 54 54 55 58 59 60 60 61 62 64 64 64 63 61 59 57 57 56 56 55 53 51 50 50 52 52 52 53
51 52 54 54 54 53 52 53 55 56 55 56 57 56 56 56 57 60 63 64 65 66 67 68 66 64 62 61 58 57 57 58 58 57 55 52 51 51 53 53 53 53
53 53 55 56 56 56 55 54 54 55 55 57 58 58 58 58 59 61 63 64 65 64 63 63 62 61 61 61 60 60 60 60 59 58 57 55 54 53 54 55 55 54
52 52 53 53 54 55 55 54 54 55 55 56 56 56 57 59 60 60 61 62 61 60 60 59 58 58 58 59 59 58 59 59 58 57 58 59 59 57 56 56 57 56
53 51 51 52 53 54 54 54 53 54 55 55 54 53 54 56 57 58 60 61 61 60 61 62 60 58 58 58 59 59 59 59 59 59 60 62 64 62 59 58 60 63
54 51 50 53 54 55 56 56 54 55 55 54 54 54 54 55 57 59 60 61 62 62 62 63 63 62 61 61 61 61 60 60 60 61 62 64 64 63 63 64 68 72
56 53 52 54 56 56 57 58 58 57 56 54 54 56 57 59 61 63 64 66 68 68 66 65 65 65 65 65 65 65 64 63 63 63 64 65 66 67 70 73 76 77
56 56 56 58 59 57 57 58 60 60 59 57 58 61 64 67 68 69 70 71 72 73 72 71 70 69 69 68 68 69 69 67 67 68 70 71 72 73 75 76 76 76
55 56 58 60 63 62 59 59 61 63 65 65 66 68 71 74 75 75 76 77 77 77 76 75 75 74 73 73 72 72 71 70 71 74 75 76 77 77 77 77 77 76
61 61 61 63 65 66 65 65 65 67 69 71 72 73 74 76 77 77 78 79 80 80 80 78 78 77 78 78 78 77 76 76 77 79 81 81 81 80 80 79 79 79
75 75 73 73 72 71 71 72 72 71 72 72 73 74 75 75 75 75 76 77 78 79 81 81 81 81 82 82 83 84 83 83 84 85 87 87 87 85 85 84 84 83
86 85 84 83 82 81 79 79 79 78 77 77 76 77 76 76 75 75 74 75 76 77 79 81 82 83 84 85 87 88 89 90 90 91 92 92 92 92 92 91 90 88
Wind_Direction
259 261 261 262 262 262 263 264 266 268 268 268 268 267 265 262 260 258 258 262 265 267 269 273 277 280 283 285 288 289 287 282 276 271 270 274 279 281 281 281 281 276
260 262 263 263 263 263 263 264 266 268 268 266 266 267 266 263 258 256 259 264 266 268 270 272 275 278 280 282 284 284 282 278 275 272 272 276 280 281 281 281 282 280
261 261 262 263 263 264 264 265 266 267 267 266 265 265 266 265 261 260 262 265 266 268 270 271 273 275 278 280 281 280 277 274 272 271 273 276 279 281 282 282 282 283
261 261 261 262 263 264 264 265 265 265 266 265 265 265 266 266 266 266 267 267 268 269 270 271 273 275 277 278 278 276 273 270 269 270 273 275 278 280 283 284 284 284
262 261 260 261 262 263 265 265 265 265 265 265 265 266 266 268 268 269 269 269 270 270 270 271 272 274 275 276 275 274 271 270 270 271 273 276 278 281 283 284 284 284
264 262 261 261 261 262 263 264 265 266 266 266 267 267 267 268 268 269 270 270 270 271 271 271 272 273 273 273 273 273 272 271 272 273 274 277 279 281 282 283 284 283
264 263 262 261 260 260 260 261 263 264 266 266 267 267 267 268 268 268 269 269 270 270 271 271 272 272 272 272 272 273 273 273 273 273 275 277 279 281 282 282 282 282
266 266 265 262 260 258 257 258 259 261 263 265 266 266 267 267 267 268 268 269 269 270 271 271 271 271 271 271 271 272 272 272 272 273 274 276 279 281 281 281 280 280
264 267 268 265 261 258 257 256 257 259 260 263 265 266 266 267 268 268 269 271 271 271 271 270 270 269 270 270 271 271 271 271 272 273 274 276 279 280 280 278 277 277
260 260 262 262 260 258 256 256 258 259 260 261 263 265 266 267 269 270 271 272 271 271 270 269 268 268 268 269 270 271 271 271 271 271 272 276 279 279 277 275 274 275
258 255 255 257 258 258 259 262 264 264 262 261 262 263 264 266 267 269 269 269 268 268 267 267 268 269 270 272 272 273 272 271 271 271 273 277 279 279 277 273 273 275
258 256 254 254 257 260 262 265 265 263 262 261 260 261 261 262 263 263 263 263 264 265 265 266 269 272 274 274 273 273 272 272 272 273 275 277 278 277 274 272 274 279
256 256 255 255 257 260 262 262 261 259 259 260 260 259 258 257 257 257 257 258 259 261 263 266 269 272 273 273 272 272 273 274 275 275 276 276 275 273 272 275 280 285
253 255 257 257 257 257 258 259 258 256 257 259 259 258 256 254 253 253 255 257 258 261 263 266 270 272 273 272 273 274 275 276 276 276 276 275 273 273 276 282 286 289
256 257 259 258 257 258 258 257 256 255 255 256 257 257 257 256 255 255 257 259 260 261 264 267 270 272 272 273 273 274 275 276 276 275 275 274 275 277 281 284 285 286
257 258 260 260 259 258 257 256 255 254 254 254 255 256 257 257 256 257 259 262 263 264 266 269 271 271 271 271 271 271 273 274 275 275 274 274 275 278 280 281 280 282
253 255 259 261 260 259 257 256 255 254 254 254 255 256 256 256 256 258 261 263 265 267 269 270 271 271 271 271 270 271 272 273 273 273 274 274 275 276 277 277 277 278
251 253 256 258 260 260 258 257 256 255 255 255 256 257 257 258 259 260 261 261 263 266 267 267 269 270 269 268 268 268 269 269 269 269 270 271 272 273 272 272 273 275
255 255 254 254 256 257 257 256 255 255 255 256 255 256 256 257 258 259 259 259 261 263 265 265 266 265 264 264 264 264 263 264 264 264 265 267 268 270 270 270 272 276
258 257 252 250 252 255 256 256 255 254 255 255 254 253 252 253 255 256 256 258 260 262 263 263 264 263 262 261 262 262 260 260 259 259 260 261 263 265 268 271 275 278
259 258 253 249 250 253 255 256 255 255 255 254 253 252 252 252 253 254 255 256 257 259 259 260 262 262 261 260 261 262 261 259 258 258 258 258 260 264 269 274 277 279
259 258 256 251 249 250 253 254 255 255 255 255 255 256 257 256 257 258 259 259 258 258 259 258 259 260 260 259 260 262 261 260 260 260 261 263 266 270 273 276 277 278
256 256 254 252 249 247 249 253 255 256 256 257 258 259 260 262 263 263 264 264 263 262 260 259 259 259 259 258 258 259 260 261 263 265 267 270 273 275 277 277 277 276
257 256 254 251 250 248 248 251 254 256 257 258 259 260 261 263 264 264 264 264 264 263 261 259 258 258 258 258 257 258 259 260 263 267 270 273 275 277 277 277 277 275
262 261 258 255 253 251 251 251 252 253 255 256 257 257 258 258 260 261 261 261 261 260 260 260 259 258 258 258 257 257 258 259 262 265 268 270 272 273 275 275 275 274
263 263 261 260 258 256 254 253 253 253 253 253 254 254 254 254 255 256 257 257 257 257 258 259 259 259 259 259 258 258 258 259 261 263 265 267 268 270 271 272 272 272
Height
10633 10634 10634 10634 10634 10634 10634 10634 10634 10635 10636 10636 10637 10637 10638 10638 10639 10640 10641 10641 10641 10641 10642 10642 10642 10642 10642 10643 10643 10644 10645 10645 10644 10644 10643 10642 10642 10641 10640 10639 10638 10637
10627 10628 10628 10628 10628 10629 10629 10629 10629 10629 10630 10631 10631 10632 10632 10633 10633 10634 10635 10635 10636 10636 10636 10636 10637 10637 10637 10638 10638 10639 10640 10640 10640 10639 10639 10638 10638 10637 10637 10636 10635 10635
10621 10622 10622 10623 10623 10623 10623 10623 10623 10623 10624 10625 10626 10626 10627 10627 10628 10628 10629 10630 10630 10630 10630 10631 10631 10632 10632 10633 10633 10634 10634 10635 10635 10635 10634 10634 10634 10633 10633 10633 10632 10631
10615 10616 10616 10617 10617 10618 10618 10617 10617 10617 10618 10619 10620 10620 10621 10621 10622 10623 10623 10624 10624 10625 10625 10625 10626 10626 10626 10627 10628 10628 10629 10629 10630 10630 10630 10630 10629 10629 10628 10628 10627 10626
10610 10610 10610 10611 10611 10612 10611 10611 10610 10611 10612 10612 10613 10614 10615 10615 10616 10617 10617 10618 10618 10619 10619 10619 10619 10620 10620 10621 10622 10623 10624 10624 10625 10625 10625 10625 10624 10624 10623 10622 10621 10620
10605 10605 10605 10605 10606 10606 10606 10604 10604 10604 10605 10606 10607 10608 10609 10610 10610 10611 10611 10612 10612 10613 10613 10612 10613 10613 10614 10615 10616 10617 10618 10619 10619 10620 10619 10619 10619 10618 10617 10616 10615 10614
10598 10599 10599 10600 10600 10601 10600 10598 10598 10598 10599 10600 10601 10602 10603 10604 10605 10605 10605 10606 10606 10606 10606 10606 10607 10607 10608 10609 10611 10612 10613 10613 10613 10613 10613 10613 10613 10612 10611 10610 10609 10608
10591 10591 10592 10593 10594 10594 10594 10593 10592 10592 10594 10595 10595 10597 10598 10598 10599 10600 10600 10599 10600 10600 10600 10600 10601 10601 10602 10604 10605 10606 10606 10606 10606 10606 10606 10607 10607 10606 10606 10605 10603 10602
10584 10584 10585 10586 10587 10588 10588 10588 10587 10587 10589 10590 10590 10592 10593 10593 10594 10594 10594 10593 10593 10593 10594 10594 10594 10595 10596 10597 10598 10599 10599 10599 10599 10600 10601 10601 10601 10601 10600 10598 10598 10596
10576 10578 10579 10579 10580 10581 10582 10583 10582 10583 10584 10585 10586 10586 10587 10587 10588 10589 10588 10588 10587 10587 10587 10587 10587 10588 10589 10590 10591 10591 10592 10592 10593 10594 10594 10595 10595 10594 10593 10592 10591 10590
10569 10571 10573 10573 10574 10575 10576 10577 10577 10577 10577 10579 10580 10580 10581 10581 10582 10583 10582 10582 10582 10581 10580 10580 10579 10580 10582 10583 10584 10584 10585 10586 10586 10587 10587 10588 10587 10586 10586 10585 10584 10583
10564 10566 10568 10569 10569 10569 10570 10570 10570 10569 10569 10572 10574 10574 10575 10575 10576 10577 10577 10577 10577 10574 10573 10573 10574 10575 10576 10576 10576 10577 10578 10579 10579 10579 10580 10580 10580 10579 10578 10577 10576 10576
10561 10561 10562 10563 10563 10563 10563 10564 10564 10562 10561 10564 10567 10568 10569 10569 10570 10571 10571 10571 10569 10567 10568 10568 10569 10569 10569 10568 10568 10569 10570 10571 10571 10571 10572 10574 10573 10571 10569 10569 10568 10568
10555 10555 10555 10556 10557 10557 10556 10557 10557 10555 10555 10558 10560 10561 10563 10563 10564 10564 10564 10564 10563 10562 10562 10562 10562 10561 10562 10562 10561 10562 10563 10563 10562 10564 10565 10566 10565 10564 10562 10561 10560 10559
10551 10549 10548 10549 10550 10551 10551 10550 10549 10549 10550 10551 10552 10554 10555 10556 10557 10557 10556 10556 10556 10556 10556 10555 10555 10554 10554 10555 10556 10556 10556 10555 10554 10556 10557 10557 10557 10556 10555 10555 10554 10552
10546 10543 10541 10542 10544 10544 10545 10543 10541 10542 10543 10543 10544 10546 10548 10549 10549 10548 10548 10548 10549 10549 10549 10549 10549 10548 10548 10548 10549 10549 10548 10548 10547 10547 10549 10550 10550 10549 10548 10548 10547 10546
10540 10538 10536 10536 10536 10537 10538 10537 10535 10535 10535 10535 10536 10539 10540 10541 10542 10541 10541 10541 10541 10542 10541 10541 10541 10541 10540 10541 10541 10541 10541 10541 10541 10540 10540 10542 10543 10543 10542 10541 10540 10539
10535 10534 10532 10530 10529 10529 10530 10531 10530 10529 10530 10529 10530 10532 10533 10533 10534 10534 10534 10534 10534 10533 10533 10533 10533 10533 10533 10533 10534 10534 10534 10534 10535 10535 10534 10534 10534 10535 10536 10535 10534 10533
10530 10530 10528 10525 10523 10522 10522 10522 10523 10523 10524 10525 10525 10524 10524 10525 10525 10525 10525 10525 10526 10526 10526 10526 10527 10526 10526 10526 10526 10526 10527 10527 10528 10528 10528 10528 10527 10527 10529 10529 10528 10528
10523 10524 10523 10521 10518 10516 10515 10515 10515 10515 10517 10519 10519 10518 10518 10518 10517 10517 10517 10518 10518 10518 10519 10519 10519 10519 10519 10518 10518 10519 10520 10521 10521 10521 10521 10521 10520 10521 10522 10522 10521 10520
10516 10517 10518 10516 10514 10512 10511 10510 10509 10509 10511 10513 10513 10512 10512 10511 10509 10508 10509 10510 10509 10510 10511 10511 10511 10512 10512 10511 10511 10511 10512 10513 10514 10513 10512 10513 10514 10516 10516 10515 10512 10511
10509 10510 10511 10510 10509 10507 10507 10506 10505 10506 10507 10508 10507 10505 10504 10502 10501 10501 10501 10501 10500 10501 10503 10504 10504 10504 10505 10504 10504 10504 10505 10507 10507 10504 10503 10504 10507 10508 10508 10506 10503 10502
10502 10502 10503 10502 10500 10500 10501 10500 10500 10500 10500 10500 10500 10497 10495 10495 10496 10496 10495 10493 10493 10493 10494 10495 10495 10496 10497 10497 10497 10497 10498 10499 10498 10495 10494 10495 10497 10497 10497 10496 10495 10495
10494 10495 10495 10494 10492 10492 10493 10492 10492 10492 10492 10492 10493 10491 10489 10489 10489 10489 10488 10487 10485 10484 10485 10486 10486 10487 10487 10488 10489 10489 10490 10492 10490 10486 10485 10486 10487 10487 10487 10486 10486 10486
10483 10484 10485 10484 10483 10484 10484 10482 10482 10483 10484 10484 10485 10484 10483 10482 10481 10481 10480 10478 10477 10477 10477 10477 10477 10477 10478 10478 10478 10479 10481 10482 10481 10479 10478 10478 10479 10480 10480 10478 10476 10475
10471 10472 10473 10473 10473 10474 10475 10473 10472 10473 10474 10475 10475 10474 10474 10474 10473 10473 10471 10468 10468 10468 10468 10467 10467 10467 10467 10467 10467 10468 10469 10471 10471 10471 10470 10470 10470 10470 10470 10469 10468 10467